Location: Unspecified
(0.0000°N, 0.0000°E)
Time: 03:03:08
(UTC+00:00)

STARLINK-1830 - Pass Details

Date: 24 April 2026
Orbit: 363 x 370 km, 53.0° (Epoch: 11 May)

Event Time Altitude Azimuth Distance (km) Brightness Sun altitude
Rises 18:32:23 0° 342° (NNW) 2,203 7.2 -8.3°
Reaches altitude 10° 18:34:35 10° 354° (N) 1,355 5.9 -8.9°
Maximum altitude 18:37:15 28° 56° (NE) 717 3.9 -9.5°
Enters shadow 18:39:12 15° 110° (ESE) 1,103 4.5 -10.0°
